Date String (YYYY-MM-DD hh:mm:ss) UTC,Instrument flags,Ambient pressure (hPa),Sample flow (lpm),Bypass flow (lpm),Sample temperature (°C),Ambient temperature (°C),ASC tube jacket temperature (°C),LED temperature (°C),Box temperature (°C),Sample RH (%),Span deviation,Mass concentration (μg/m³),Mass concentration (μg/m³),Mass concentration (μg/m³)
DateTimeUTC,F1_M11,P_M11,Q1_M11,Q2_M11,T1_M11,T2_M11,T3_M11,T4_M11,T5_M11,U1_M11,ZSPAN_M11,X0_M11,X2_M11,X1_M11
2022-12-26 19:00:00,,0829.0,4.98,0.00,23.1,22.0,00.0,31.8,24.9,16.7,0000.0,0007.27,0004.59,0004.38
2022-12-26 19:01:00,,0829.0,4.96,0.00,23.1,22.1,00.0,31.9,25.0,16.6,0000.0,0007.28,0004.61,0004.42
2022-12-26 19:02:00,,0828.9,5.02,0.00,23.1,22.1,00.0,31.9,25.0,16.5,0000.0,0007.32,0004.64,0004.44
2022-12-26 19:03:00,,0828.9,5.02,0.00,23.1,22.1,00.0,31.9,25.0,16.6,0000.0,0007.35,0004.66,0004.46
2022-12-26 19:04:00,,0828.9,4.98,0.00,23.1,22.1,00.0,31.9,25.0,16.7,0000.0,0007.44,0004.69,0004.49
2022-12-26 19:05:00,,0829.1,4.96,0.00,23.1,22.1,00.0,31.9,25.0,16.5,0000.0,0006.77,0004.72,0004.48
2022-12-26 19:06:00,,0829.3,5.00,0.00,23.1,22.1,00.0,31.9,25.0,16.8,0000.0,0006.95,0004.74,0004.47
2022-12-26 19:07:00,,0828.9,5.02,0.00,23.1,22.1,00.0,31.9,25.0,16.5,0000.0,0006.95,0004.73,0004.47
2022-12-26 19:08:00,,0828.8,5.01,0.00,23.1,22.0,00.0,31.9,25.0,16.7,0000.0,0006.98,0004.73,0004.48
2022-12-26 19:09:00,,0828.7,4.97,0.00,23.1,22.0,00.0,31.9,25.0,16.7,0000.0,0006.83,0004.73,0004.48
2022-12-26 19:10:00,,0828.7,4.99,0.00,23.2,22.1,00.0,31.9,25.0,17.0,0000.0,0006.86,0004.74,0004.48
2022-12-26 19:11:00,,0829.1,5.03,0.00,23.2,22.1,00.0,32.0,25.1,16.8,0000.0,0006.91,0004.75,0004.48
2022-12-26 19:12:00,,0829.2,5.01,0.00,23.2,22.1,00.0,32.0,25.1,16.7,0000.0,0006.82,0004.74,0004.48
2022-12-26 19:13:00,,0829.0,4.98,0.00,23.2,22.1,00.0,32.0,25.1,16.9,0000.0,0006.88,0004.75,0004.50
2022-12-26 19:14:00,,0828.9,4.98,0.00,23.2,22.1,00.0,32.0,25.1,16.6,0000.0,0006.94,0004.79,0004.53
2022-12-26 19:15:00,,0828.7,5.02,0.00,23.2,22.1,00.0,32.0,25.0,16.6,0000.0,0006.91,0004.82,0004.55
2022-12-26 19:16:00,,0829.1,5.01,0.00,23.2,22.0,00.0,32.0,25.0,16.6,0000.0,0007.21,0004.81,0004.57
2022-12-26 19:17:00,,0829.1,4.99,0.00,23.2,22.1,00.0,32.0,25.1,16.5,0000.0,0007.69,0004.80,0004.59
2022-12-26 19:18:00,,0828.8,4.97,0.00,23.2,22.1,00.0,32.0,25.1,16.6,0000.0,0007.65,0004.81,0004.62
2022-12-26 19:19:00,,0828.7,4.99,0.00,23.2,22.2,00.0,32.0,25.1,16.8,0000.0,0007.65,0004.82,0004.63
2022-12-26 19:20:00,,0829.1,5.03,0.00,23.2,22.2,00.0,32.0,25.1,16.7,0000.0,0007.67,0004.84,0004.64
2022-12-26 19:21:00,,0829.1,5.02,0.00,23.3,22.2,00.0,32.0,25.1,16.9,0000.0,0007.67,0004.85,0004.65
2022-12-26 19:22:00,,0829.1,4.99,0.00,23.3,22.3,00.0,32.1,25.1,16.6,0000.0,0007.66,0004.85,0004.66
2022-12-26 19:23:00,,0828.4,4.96,0.00,23.3,22.3,00.0,32.1,25.1,16.9,0000.0,0007.72,0004.89,0004.69
2022-12-26 19:24:00,,0828.5,5.00,0.00,23.3,22.3,00.0,32.1,25.1,17.1,0000.0,0007.86,0004.89,0004.69
2022-12-26 19:25:00,,0828.5,5.02,0.00,23.4,22.3,00.0,32.1,25.2,17.1,0000.0,0007.99,0004.91,0004.69
2022-12-26 19:26:00,,0828.5,5.01,0.00,23.4,22.4,00.0,32.1,25.2,16.9,0000.0,0008.00,0004.92,0004.70
2022-12-26 19:27:00,,0828.5,4.97,0.00,23.4,22.4,00.0,32.1,25.2,17.1,0000.0,0007.79,0004.93,0004.70
2022-12-26 19:28:00,,0828.5,4.98,0.00,23.4,22.4,00.0,32.1,25.2,17.1,0000.0,0007.53,0004.96,0004.70
2022-12-26 19:29:00,,0828.5,5.01,0.00,23.4,22.4,00.0,32.2,25.2,16.8,0000.0,0007.60,0004.98,0004.70
2022-12-26 19:30:00,,0828.4,5.02,0.00,23.5,22.4,00.0,32.2,25.3,16.7,0000.0,0007.63,0005.00,0004.71
2022-12-26 19:31:00,,0828.4,4.99,0.00,23.5,22.4,00.0,32.2,25.3,16.8,0000.0,0007.93,0005.00,0004.71
2022-12-26 19:32:00,,0828.4,4.98,0.00,23.5,22.5,00.0,32.2,25.3,16.7,0000.0,0008.31,0005.01,0004.72
2022-12-26 19:33:00,,0828.4,5.00,0.00,23.5,22.5,00.0,32.2,25.3,16.9,0000.0,0008.34,0005.02,0004.73
2022-12-26 19:34:00,,0828.4,5.04,0.00,23.5,22.5,00.0,32.2,25.3,17.0,0000.0,0008.37,0005.04,0004.73
2022-12-26 19:35:00,,0828.3,5.01,0.00,23.6,22.5,00.0,32.3,25.3,16.8,0000.0,0008.29,0005.08,0004.74
2022-12-26 19:36:00,,0828.4,4.99,0.00,23.6,22.5,00.0,32.3,25.3,16.9,0000.0,0008.50,0005.08,0004.74
2022-12-26 19:37:00,,0828.4,4.97,0.00,23.6,22.6,00.0,32.3,25.3,16.7,0000.0,0008.53,0005.08,0004.75
2022-12-26 19:38:00,,0828.4,4.98,0.00,23.6,22.6,00.0,32.3,25.3,16.8,0000.0,0008.44,0005.09,0004.78
2022-12-26 19:39:00,,0828.3,5.02,0.00,23.6,22.6,00.0,32.3,25.4,16.8,0000.0,0008.30,0005.09,0004.79
2022-12-26 19:40:00,,0828.3,4.99,0.00,23.6,22.6,00.0,32.3,25.4,16.6,0000.0,0008.21,0005.08,0004.79
2022-12-26 19:41:00,,0828.3,4.98,0.00,23.7,22.7,00.0,32.4,25.4,16.5,0000.0,0008.23,0005.08,0004.78
2022-12-26 19:42:00,,0828.3,5.02,0.00,23.7,22.7,00.0,32.4,25.4,16.5,0000.0,0008.10,0005.07,0004.77
2022-12-26 19:43:00,,0828.3,5.02,0.00,23.7,22.7,00.0,32.4,25.5,16.9,0000.0,0007.58,0005.09,0004.77
2022-12-26 19:44:00,,0828.3,5.00,0.00,23.7,22.7,00.0,32.4,25.5,17.3,0000.0,0007.59,0005.10,0004.78
2022-12-26 19:45:00,,0828.3,4.96,0.00,23.7,22.8,00.0,32.4,25.5,17.2,0000.0,0007.67,0005.12,0004.81
2022-12-26 19:46:00,,0828.3,5.00,0.00,23.8,22.8,00.0,32.5,25.5,16.9,0000.0,0007.75,0005.13,0004.83
2022-12-26 19:47:00,,0828.3,5.02,0.00,23.8,22.8,00.0,32.5,25.5,16.9,0000.0,0007.60,0005.17,0004.86
2022-12-26 19:48:00,,0828.3,5.03,0.00,23.8,22.8,00.0,32.5,25.6,16.7,0000.0,0007.65,0005.19,0004.87
2022-12-26 19:49:00,,0828.3,4.96,0.00,23.8,22.8,00.0,32.5,25.6,16.4,0000.0,0007.96,0005.20,0004.88
2022-12-26 19:50:00,,0828.2,5.00,0.00,23.8,22.8,00.0,32.5,25.6,16.4,0000.0,0007.93,0005.20,0004.89
2022-12-26 19:51:00,,0828.2,5.04,0.00,23.9,22.8,00.0,32.6,25.6,16.5,0000.0,0007.91,0005.20,0004.90
2022-12-26 19:52:00,,0828.3,5.01,0.00,23.9,22.9,00.0,32.6,25.7,16.7,0000.0,0007.86,0005.19,0004.91
2022-12-26 19:53:00,,0828.2,4.97,0.00,23.9,22.9,00.0,32.6,25.7,16.6,0000.0,0008.02,0005.22,0004.93
2022-12-26 19:54:00,,0828.1,4.96,0.00,23.9,22.9,00.0,32.6,25.7,16.8,0000.0,0008.03,0005.23,0004.95
2022-12-26 19:55:00,,0828.1,5.02,0.00,23.9,22.9,00.0,32.6,25.7,16.9,0000.0,0008.01,0005.22,0004.95
2022-12-26 19:56:00,,0828.0,5.02,0.00,24.0,22.9,00.0,32.6,25.7,16.5,0000.0,0008.07,0005.20,0004.93
2022-12-26 19:57:00,,0828.0,4.98,0.00,24.0,22.9,00.0,32.7,25.7,16.6,0000.0,0008.43,0005.18,0004.91
2022-12-26 19:58:00,,0828.0,4.98,0.00,24.0,23.0,00.0,32.7,25.7,16.2,0000.0,0008.38,0005.13,0004.87
2022-12-26 19:59:00,,0828.0,5.03,0.00,24.0,23.0,00.0,32.7,25.8,16.2,0000.0,0008.41,0005.14,0004.85
